Regional Weather Roundup
Issued by NWS Charleston, SC

Current Version | Previous Version | Graphics & Text | Print | Product List | Glossary On
Versions: 1 2 3 4 5 6 7 8 9 10 11 12 13 14 15 16 17 18 19 20 21 22 23 24 25 26 27 28 29 30 31 32 33 34 35 36 37 38 39 40 41 42 43 44 45 46 47 48 49 50
000 ASUS42 KCHS 230127 RWRCHS Regional Weather Roundup National Weather Service Charleston SC 900 PM EDT SUN APR 22 2018 NOTE: "fair" indicates few or no clouds below 12,000 feet with no significant weather and/or obstructions to visibility. Not all stations are quality controlled. Use data with caution, especially dewpoint observations. SCZ027-030-031-034>040-042>050-230200- ...Southeast South Carolina... CITY SKY/WX TMP DP RH WIND PRES REMARKS N Charleston LGT RAIN 66 56 70 E17G24 30.25R Waterfront Prk NOT AVBL Mount Pleasant CLOUDY 66 55 68 E6 30.26R Johns Island CLOUDY 66 59 77 E15G22 30.25R Pinopolis N/A 64 55 72 E7 30.16R Moncks Corner CLOUDY 64 52 63 E8 30.26R Summerville CLOUDY 64 54 68 E8 30.26R Beaufort MCAS CLOUDY 68 57 68 E15G23 30.21R Beaufort Arpt CLOUDY 66 55 68 E14G21 30.21F Hilton Head Is MOCLDY 66 61 82 NE10G17 30.21S Walterboro LGT RAIN 63 54 72 E7 30.24S Allendale CLOUDY 64 54 68 VRB3G16 30.20S ...Southern Midlands and Pee Dee... CITY SKY/WX TMP DP RH WIND PRES REMARKS Georgetown FAIR 61 61 100 E8 30.29R Kingstree LGT RAIN 61 54 77 E9 30.27R Orangeburg CLOUDY 63 51 65 E6 30.23R Barnwell DRIZZLE 64 54 68 E9G16 30.21R Aiken LGT RAIN 59 54 82 E10 30.24S Manning LGT RAIN 59 50 72 SE5 30.27R Columbia LGT RAIN 62 59 90 E10 30.22R Sumter CLOUDY 63 53 70 E9 30.23R Florence MOCLDY 64 51 62 SE9 30.27R Myrtle Beach MOCLDY 63 53 70 E13G21 30.31R N Myrtle Beach FAIR 63 51 65 E10G20 30.29R $$ GAZ063-065-086>088-099>101-113>116-118-119-134>141-150-230200- ...Southeast Georgia... CITY SKY/WX TMP DP RH WIND PRES REMARKS Savannah Arpt CLOUDY 67 58 72 E10 30.18S Hunter AAF FAIR 66 60 79 E10 30.16S Fort Stewart CLOUDY 67 58 74 E10 30.14S Statesboro CLOUDY 66 53 63 E10G17 30.16F Sylvania CLOUDY 64 57 77 SE12G17 30.18F Claxton FAIR 67 59 75 NE12 30.15S ...CSRA, Central and far Southeast Georgia... CITY SKY/WX TMP DP RH WIND PRES REMARKS Thomson LGT RAIN 60 59 96 S10G18 30.22S Augusta-Bush LGT RAIN 62 58 86 E8 30.19R Augusta-Daniel LGT RAIN 62 58 86 E9 30.19R Swainsboro FAIR 64 57 77 E17G25 30.12F Vidalia FAIR 68 59 73 E13G24 30.11R Eastman CLOUDY 66 55 66 E8 30.12R Hazlehurst FAIR 69 56 64 E17 30.08S Alma FAIR 69 59 70 E13G21 30.06F Waycross MOCLDY 67 64 91 SE17G23 30.10R Jesup NOT AVBL Baxley FAIR 66 59 77 E15G23 30.07F Brunswick CLOUDY 64 61 88 E10 30.14F Saint Simons CLOUDY 68 64 87 NE10 30.14R $$ SCZ027-028-034-036>038-045-046-048>050-GAZ119-141-230200- ...Lake and Supplemental Coastal Observations... STATION/POSITION TIME TEMP WIND PRES WAVE SWELL AIR SEA DIR/SP/G HT/PER HT/PER/DIR (UTC) (F) (DEG/KT/KT) (MB) (FT/S) (FT/S/D) Winyah Bay 0045 63 80/ 13 1025.0S Lake Murray 0020 63 90/ 9/ 10 1022.4 ACE Basin NERRS 0045 67 350/ 3 N/A Fort Pulaski 0100 66 66 80/ 15/ 18 1022.3 Sapelo Island 0100 66 70/ 8 1021.0 $$ ANZ835-935-AMZ111-154-330-350-352-354-370-450-454-472-230200- ...C-MAN and Buoy Observations... STATION/POSITION TIME TEMP WIND PRES WAVE SWELL AIR SEA DIR/SP/G HT/PER HT/PER/DIR (UTC) (F) (DEG/KT/KT) (MB) (FT/S) (FT/S/D) Buoy 41004 0110 69 67 110/ 17/ 21 1024.1 Buoy 41008 0050 67 65 90/ 12/ 16 1021.1R 4/ 7 3/120/ 7 Folly Beach CMAN 0100 65 70/ 16/ 20 1024.8R Capers Nearshore 0108 65 63 80/ 16/ 21 1024.7R Fripp Nearshore 0108 65 64 70/ 14/ 21 1022.5R STATION/POSITION TIME TEMP WIND PRES WAVE SWELL AIR SEA DIR/SP/G HT/PER HT/PER/DIR (UTC) (F) (DEG/KT/KT) (MB) (FT/S) (FT/S/D) 5E St. Marys GA 0100 67 N/A 5/ 6 Frying Pan Buoy 0110 67 70 110/ 17/ 21 1025.9 Buoy 41025 0110 65 74 120/ 12/ 16 1028.1 Cape Lookout NC 0100 50/ 11/ 12 1027.3R Buoy 41002 0110 67 72 110/ 14/ 19 1025.5 Buoy 41010 0110 73 75 90/ 21/ 27 1020.7 St Augustine FL 0100 69 69 130/ 11/ 12 1019.1R $$

USA.gov is the U.S. government's official web portal to all federal, state and local government web resources and services.